| time (UTC) | temp F | wind direction | speed MPH | gust MPH | rain 1hr in | rain 24hr in | rain mn in | humidity % | barometer mb |
| 20260510023012 | 48 | 314 | 1.0 | 3.0 | 0.00 | 0.36 | 0.11 | 75 | 1014.2 |
| 20260510021507 | 49 | 338 | 1.0 | 4.0 | 0.00 | 0.36 | 0.11 | 73 | 1013.8 |
| 20260510020004 | 50 | 316 | 2.0 | 5.0 | 0.00 | 0.36 | 0.11 | 72 | 1013.6 |
| 20260510014610 | 51 | 293 | 3.0 | 8.0 | 0.00 | 0.36 | 0.11 | 71 | 1013.3 |
| 20260510013133 | 51 | 320 | 5.0 | 9.0 | 0.00 | 0.36 | 0.11 | 69 | 1013.1 |
| 20260510011655 | 52 | 277 | 4.0 | 9.0 | 0.00 | 0.36 | 0.11 | 71 | 1012.9 |
| 20260510010054 | 52 | 331 | 2.0 | 6.0 | 0.00 | 0.36 | 0.11 | 72 | 1012.8 |
| 20260510004551 | 51 | 314 | 3.0 | 5.0 | 0.00 | 0.36 | 0.11 | 79 | 1012.6 |
| 20260510003103 | 49 | 281 | 4.0 | 11.0 | 0.00 | 0.36 | 0.11 | 80 | 1012.6 |
| 20260510001547 | 49 | 288 | 4.0 | 12.0 | 0.00 | 0.36 | 0.11 | 79 | 1012.5 |
| 20260510000050 | 49 | 278 | 5.0 | 12.0 | 0.00 | 0.36 | 0.11 | 79 | 1012.2 |
| 20260509234542 | 49 | 276 | 6.0 | 16.0 | 0.00 | 0.36 | 0.11 | 76 | 1012.1 |
| 20260509233038 | 52 | 291 | 9.0 | 17.0 | 0.00 | 0.36 | 0.11 | 76 | 1011.8 |
| 20260509231502 | 53 | 257 | 8.0 | 11.0 | 0.00 | 0.36 | 0.11 | 72 | 1011.4 |
| 20260509230109 | 54 | 319 | 4.0 | 12.0 | 0.00 | 0.36 | 0.11 | 65 | 1011.2 |
| 20260509224555 | 54 | 343 | 4.0 | 10.0 | 0.01 | 0.36 | 0.11 | 65 | 1010.9 |
| 20260509223104 | 54 | 30 | 2.0 | 6.0 | 0.01 | 0.36 | 0.11 | 69 | 1010.8 |
| 20260509221604 | 53 | 42 | 3.0 | 6.0 | 0.01 | 0.36 | 0.11 | 74 | 1010.7 |
| 20260509220051 | 53 | 4 | 5.0 | 12.0 | 0.01 | 0.36 | 0.11 | 69 | 1010.9 |
| 20260509214558 | 55 | 331 | 3.0 | 8.0 | 0.00 | 0.35 | 0.10 | 59 | 1010.6 |
| 20260509213046 | 55 | 23 | 4.0 | 11.0 | 0.00 | 0.35 | 0.10 | 58 | 1010.6 |
| 20260509211547 | 56 | 312 | 5.0 | 11.0 | 0.00 | 0.35 | 0.10 | 60 | 1010.6 |
| 20260509210046 | 56 | 325 | 4.0 | 9.0 | 0.00 | 0.35 | 0.10 | 63 | 1010.5 |
| 20260509204535 | 54 | 271 | 6.0 | 9.0 | 0.00 | 0.35 | 0.10 | 64 | 1010.5 |
| 20260509203039 | 53 | 317 | 4.0 | 7.0 | 0.00 | 0.35 | 0.10 | 66 | 1010.5 |
| 20260509201534 | 52 | 343 | 3.0 | 8.0 | 0.01 | 0.35 | 0.10 | 71 | 1010.5 |
| 20260509200037 | 51 | 326 | 3.0 | 7.0 | 0.01 | 0.35 | 0.10 | 73 | 1010.4 |
| 20260509194543 | 50 | 319 | 3.0 | 8.0 | 0.01 | 0.35 | 0.10 | 76 | 1010.5 |
| 20260509193024 | 53 | 307 | 6.0 | 12.0 | 0.01 | 0.35 | 0.10 | 64 | 1010.2 |
| 20260509191518 | 54 | 320 | 6.0 | 15.0 | 0.00 | 0.34 | 0.09 | 63 | 1010.1 |
| 20260509190017 | 54 | 326 | 4.0 | 12.0 | 0.00 | 0.34 | 0.09 | 63 | 1009.9 |
| 20260509184510 | 54 | 353 | 4.0 | 12.0 | 0.00 | 0.36 | 0.09 | 62 | 1009.7 |
| 20260509183007 | 53 | 342 | 5.0 | 11.0 | 0.03 | 0.36 | 0.09 | 72 | 1009.4 |
| 20260509181502 | 51 | 314 | 4.0 | 8.0 | 0.06 | 0.36 | 0.09 | 78 | 1009.4 |
| 20260509180054 | 53 | 286 | 2.0 | 10.0 | 0.07 | 0.36 | 0.09 | 68 | 1009.3 |
| 20260509174550 | 55 | 354 | 5.0 | 14.0 | 0.14 | 0.36 | 0.09 | 53 | 1008.9 |
| 20260509173043 | 57 | 344 | 8.0 | 14.0 | 0.15 | 0.33 | 0.06 | 53 | 1008.6 |
| 20260509171541 | 57 | 339 | 6.0 | 13.0 | 0.20 | 0.30 | 0.03 | 54 | 1008.5 |
| 20260509170031 | 57 | 335 | 9.0 | 17.0 | 0.22 | 0.28 | 0.02 | 51 | 1008.4 |
| 20260509164526 | 58 | 331 | 7.0 | 16.0 | 0.17 | 0.22 | 0.22 | 50 | 1008.0 |
| 20260509163036 | 59 | 333 | 7.0 | 16.0 | 0.14 | 0.18 | 0.18 | 48 | 1007.9 |
| 20260509161530 | 59 | 310 | 7.0 | 15.0 | 0.06 | 0.10 | 0.10 | 48 | 1007.8 |
| 20260509160024 | 58 | 304 | 7.0 | 16.0 | 0.04 | 0.07 | 0.07 | 48 | 1007.8 |
| 20260509154520 | 58 | 329 | 6.0 | 14.0 | 0.02 | 0.05 | 0.05 | 47 | 1007.8 |
| 20260509153033 | 59 | 327 | 7.0 | 15.0 | 0.01 | 0.04 | 0.04 | 46 | 1007.6 |
| 20260509151519 | 58 | 285 | 6.0 | 12.0 | 0.01 | 0.04 | 0.04 | 48 | 1007.4 |
| 20260509150026 | 57 | 289 | 5.0 | 12.0 | 0.00 | 0.03 | 0.03 | 49 | 1007.2 |
| 20260509144516 | 57 | 324 | 4.0 | 10.0 | 0.00 | 0.03 | 0.03 | 51 | 1007.2 |
| 20260509143014 | 56 | 302 | 7.0 | 13.0 | 0.00 | 0.03 | 0.03 | 50 | 1007.3 |
| 20260509141514 | 55 | 323 | 4.0 | 8.0 | 0.00 | 0.03 | 0.03 | 52 | 1007.1 |
| 20260509140013 | 55 | 338 | 5.0 | 10.0 | 0.00 | 0.03 | 0.03 | 50 | 1006.9 |
| 20260509134513 | 55 | 281 | 4.0 | 12.0 | 0.00 | 0.03 | 0.03 | 49 | 1006.5 |
| 20260509133010 | 55 | 296 | 3.0 | 8.0 | 0.00 | 0.03 | 0.03 | 49 | 1006.4 |
| 20260509131509 | 55 | 310 | 4.0 | 9.0 | 0.00 | 0.03 | 0.03 | 50 | 1006.1 |
| 20260509130009 | 54 | 315 | 5.0 | 10.0 | 0.00 | 0.03 | 0.03 | 51 | 1006.0 |
| 20260509124508 | 54 | 318 | 4.0 | 10.0 | 0.00 | 0.03 | 0.03 | 51 | 1005.8 |
| 20260509123005 | 55 | 303 | 4.0 | 10.0 | 0.00 | 0.03 | 0.03 | 49 | 1005.7 |
| 20260509121506 | 55 | 334 | 5.0 | 12.0 | 0.01 | 0.03 | 0.03 | 47 | 1005.4 |
| 20260509120004 | 56 | 322 | 5.0 | 13.0 | 0.01 | 0.03 | 0.03 | 44 | 1005.1 |
| 20260509114509 | 57 | 260 | 7.0 | 15.0 | 0.01 | 0.03 | 0.03 | 44 | 1004.9 |
| 20260509113001 | 57 | 312 | 5.0 | 15.0 | 0.01 | 0.03 | 0.03 | 43 | 1005.0 |
| 20260509111502 | 57 | 283 | 6.0 | 13.0 | 0.00 | 0.02 | 0.02 | 43 | 1004.9 |
| 20260509110100 | 58 | 299 | 6.0 | 11.0 | 0.00 | 0.02 | 0.02 | 43 | 1004.9 |
| 20260509104600 | 59 | 283 | 5.0 | 12.0 | 0.00 | 0.02 | 0.02 | 42 | 1005.0 |
| 20260509104503 | 59 | 276 | 5.0 | 12.0 | 0.00 | 0.02 | 0.02 | 41 | 1005.0 |
| 20260509103030 | 58 | 306 | 4.0 | 8.0 | 0.00 | 0.02 | 0.02 | 43 | 1005.0 |
| 20260509101528 | 59 | 290 | 6.0 | 10.0 | 0.00 | 0.02 | 0.02 | 42 | 1004.9 |
| 20260509100025 | 60 | 252 | 6.0 | 12.0 | 0.00 | 0.02 | 0.02 | 40 | 1004.6 |
| 20260509094525 | 60 | 250 | 5.0 | 15.0 | 0.00 | 0.02 | 0.02 | 39 | 1004.2 |
| 20260509093036 | 58 | 229 | 4.0 | 10.0 | 0.00 | 0.02 | 0.02 | 46 | 1004.0 |
| 20260509091523 | 58 | 258 | 4.0 | 13.0 | 0.00 | 0.02 | 0.02 | 45 | 1004.0 |
| 20260509090020 | 58 | 250 | 6.0 | 12.0 | 0.00 | 0.02 | 0.02 | 47 | 1004.2 |
| 20260509084525 | 58 | 271 | 5.0 | 10.0 | 0.00 | 0.02 | 0.02 | 46 | 1004.0 |
| 20260509083018 | 58 | 293 | 6.0 | 15.0 | 0.00 | 0.02 | 0.02 | 45 | 1004.0 |
| 20260509081518 | 57 | 299 | 5.0 | 11.0 | 0.00 | 0.02 | 0.02 | 46 | 1003.8 |
| 20260509080047 | 58 | 264 | 4.0 | 9.0 | 0.00 | 0.02 | 0.02 | 44 | 1004.0 |
| 20260509074609 | 58 | 269 | 4.0 | 12.0 | 0.00 | 0.02 | 0.02 | 43 | 1004.1 |
| 20260509073043 | 58 | 237 | 8.0 | 14.0 | 0.00 | 0.02 | 0.02 | 43 | 1004.3 |
| 20260509071549 | 53 | 216 | 4.0 | 6.0 | 0.00 | 0.02 | 0.02 | 50 | 1004.2 |
| 20260509070044 | 53 | 241 | 2.0 | 5.0 | 0.00 | 0.02 | 0.02 | 50 | 1004.0 |
| 20260509064542 | 53 | 225 | 3.0 | 6.0 | 0.00 | 0.02 | 0.02 | 51 | 1004.0 |
| 20260509063039 | 53 | 206 | 4.0 | 7.0 | 0.00 | 0.02 | 0.02 | 51 | 1004.0 |
| 20260509061538 | 53 | 208 | 5.0 | 8.0 | 0.00 | 0.02 | 0.02 | 51 | 1004.1 |
| 20260509060039 | 53 | 201 | 5.0 | 7.0 | 0.00 | 0.02 | 0.02 | 50 | 1004.1 |
| 20260509054551 | 53 | 201 | 4.0 | 6.0 | 0.00 | 0.02 | 0.02 | 51 | 1004.2 |
| 20260509053035 | 53 | 206 | 3.0 | 6.0 | 0.00 | 0.02 | 0.02 | 51 | 1004.2 |
| 20260509051537 | 52 | 218 | 2.0 | 4.0 | 0.00 | 0.02 | 0.02 | 54 | 1004.3 |
| 20260509050045 | 50 | 234 | 0.0 | 3.0 | 0.00 | 0.02 | 0.02 | 58 | 1004.3 |
| 20260509044533 | 48 | 269 | 1.0 | 3.0 | 0.00 | 0.02 | 0.02 | 62 | 1004.6 |
| 20260509043030 | 45 | 269 | 0.0 | 2.0 | 0.00 | 0.02 | 0.02 | 64 | 1004.6 |
| 20260509041530 | 45 | 72 | 0.0 | 2.0 | 0.00 | 0.02 | 0.02 | 64 | 1004.7 |
| 20260509040028 | 44 | 63 | 1.0 | 2.0 | 0.00 | 0.02 | 0.02 | 65 | 1004.7 |
| 20260509034526 | 43 | 152 | 0.0 | 2.0 | 0.00 | 0.02 | 0.02 | 64 | 1004.8 |
| 20260509033020 | 43 | 39 | 1.0 | 2.0 | 0.00 | 0.02 | 0.02 | 62 | 1004.8 |
| 20260509031525 | 45 | 63 | 1.0 | 3.0 | 0.00 | 0.02 | 0.02 | 60 | 1004.7 |
| 20260509030006 | 46 | 76 | 1.0 | 2.0 | 0.00 | 0.02 | 0.02 | 56 | 1004.5 |
| 20260509024604 | 48 | 68 | 1.0 | 2.0 | 0.00 | 0.02 | 0.02 | 52 | 1004.4 |